Location: Munkebjergskolens Observatorium
(55.3864°N, 10.3987°E)
Time: 03:17:56
(UTC+02:00)

Oscar 19 - Pass Details

Date: 06 April 2023
Orbit: 773 x 789 km, 98.8° (Epoch: 07 June)

Event Time Altitude Azimuth Distance (km) Brightness Sun altitude
Rises 03:49:23 0° 29° (NNE) 3,278 15.3 -21.1°
Reaches altitude 10° 03:53:17 10° 59° (ENE) 2,347 14.2 -20.7°
Maximum altitude 03:55:23 12° 83° (E) 2,185 13.6 -20.5°
Drops below altitude 10° 03:57:28 10° 107° (ESE) 2,345 13.4 -20.3°
Sets 04:01:21 0° 136° (SE) 3,270 13.8 -20.0°
